Miscellaneous Local Product
Issued by NWS Hastings, NE

Home | Current Version | Previous Version | Graphics & Text | Print | Product List | Glossary On
Versions: 1 2 3 4 5 6 7 8 9 10 11 12 13 14 15 16 17 18 19 20 21 22 23 24 25 26 27 28 29 30 31 32 33 34 35 36 37 38 39 40 41 42 43 44 45 46 47 48 49 50
000
AXUS43 KGID 290302
MISGRI

GID CWA HOURLY WEATHER ROUNDUP
NATIONAL WEATHER SERVICE HASTINGS NE
900 PM CST WED JAN 28 2015

NOTE: "FAIR" INDICATES FEW OR NO CLOUDS BELOW 12,000 FEET WITH NO
SIGNIFICANT WEATHER AND/OR OBSTRUCTIONS TO VISIBILITY.

...SOUTH CENTRAL NEBRASKA...

CITY           SKY/WX    TMP DP  RH WIND       PRES   REMARKS
GRAND ISLAND   CLOUDY    54  31  41 NW21G31   29.93R
HASTINGS       MOCLDY    55  28  35 N26G35    29.92R
KEARNEY        CLOUDY    54  30  40 N18G26    29.96R
ORD            LGT RAIN  49  35  58 NW22G37   29.96R
YORK           PTCLDY    52  32  46 NW18G26   29.89R
AURORA         MOCLDY    54  31  41 NW26G36   29.92R
LEXINGTON      CLEAR     50  32  50 NW15      30.00R
HOLDREGE       FAIR      50  31  47 NW12      29.97R
HEBRON         CLEAR     55  28  35 NW17G26   29.88R

...NEBRASKA PANHANDLE...

CITY           SKY/WX    TMP DP  RH WIND       PRES   REMARKS
CHADRON        CLEAR     39  28  64 NW7       30.21R WCI  34
ALLIANCE       CLEAR     41  28  60 NW20G26   30.16R
SCOTTSBLUFF    PTCLDY    36  32  85 NW6       30.21R WCI  31
SIDNEY         CLEAR     39  34  82 NW15      30.19R WCI  31

...WESTERN AND NORTH CENTRAL NEBRASKA...

CITY           SKY/WX    TMP DP  RH WIND       PRES   REMARKS
VALENTINE      CLOUDY    37  30  75 N26G40    30.12R WCI  25
AINSWORTH      CLOUDY    41  32  71 N28G37    30.07R
ONEILL         CLOUDY    46  36  67 NW32G43   29.97R
BROKEN BOW     PTCLDY    51  30  44 NW20G30   29.99R
IMPERIAL       CLEAR     45  32  60 NW14      30.13R
NORTH PLATTE   PTCLDY    44  34  67 NW13      30.07R
MCCOOK         CLEAR     46  29  51 W12       30.07R

...EASTERN NEBRASKA...

CITY           SKY/WX    TMP DP  RH WIND       PRES   REMARKS
NORFOLK        CLOUDY    48  36  63 NW31G46   29.88R
SO SIOUX CITY  PTCLDY    42  36  79 NW26G36   29.83R
TEKAMAH        CLEAR     45  37  73 NW23G38   29.82R
COLUMBUS       CLOUDY    48  34  57 NW18G25   29.89R
ALBION         MOCLDY    49  33  52 N24G31    29.91R
OMAHA EPPLEY   MOCLDY    49  38  65 NW25G40   29.79R
OFFUTT AFB     CLEAR     51  39  63 NW21G30   29.78R
MILLARD        CLEAR     51  39  63 NW14G21   29.79R
LINCOLN        PTCLDY    54  35  48 NW24G31   29.85R
NEBRASKA CITY  CLEAR     51  32  48 NW18G29   29.79R
BEATRICE       CLEAR     47  34  59 NW13      29.83R
FALLS CITY     CLEAR     53  34  48 NW17      29.76R

...NORTHERN KANSAS...

CITY           SKY/WX    TMP DP  RH WIND       PRES   REMARKS
GOODLAND       CLEAR     44  35  70 NW17G26   30.16R
HILL CITY      CLEAR     54  29  38 NW15      30.05R
NORTON         CLEAR     48  27  43 W14       30.02R
PHILLIPSBURG   CLEAR     57  30  35 NW13G22   29.99R
SMITH CENTER   CLEAR     50  27  40 NW10      29.96R
BELOIT         MOCLDY    57  28  33 NW16      29.92R
HAYS           CLEAR     57  27  30 NW20G26   30.01R
RUSSELL        CLEAR     56  31  38 NW20G26   29.97R
CONCORDIA      CLEAR     57  31  37 NW17G24   29.90R
SALINA         CLEAR     60  33  36 NW18      29.90R
TOPEKA         MOCLDY    57  34  41 NW5       29.79R



USA.gov is the U.S. government's official web portal to all federal, state and local government web resources and services.